カタログに戻る

COSMOS 2251 DEB

運用中LEO
NORAD 37486·DEBRIS·🇷🇺 Russia

打ち上げ Jun 16, 1993 から Plesetsk Cosmodrome

Loading…

次のパス (今後24時間)

TLE

最新Source: Space-Track

元期: Sep 13, 2026, 23:35 UTC

1 37486U 93036BLP 26256.98279935  .00003346  00000-0  13586-2 0  9993
2 37486  73.6933 335.7435 0217917 163.7993  10.4773 14.15939659672623

AllMySatでCOSMOS 2251 DEBをリアルタイム追跡

Download on the App Store